• In Belarus
  • List of Countries
  • For 7 days
  • Water Temperature
  • Satellite Maps
  • Weather Map
  • Weather Widgets
  • user-avatar
    Login

    Hourly Weather Chatsu

    Today, 19 November, Monday

    Time Temperature Precipitation Wind Pressure Humidity
    00:00 +24°C° 0 mm 2 mps 734 mmHg 32%
    01:00 +24°C° 0 mm 2 mps 733 mmHg 33%
    02:00 +23°C° 0 mm 2 mps 733 mmHg 35%
    03:00 +23°C° 0 mm 2 mps 733 mmHg 36%
    04:00 +22°C° 0 mm 1 mps 734 mmHg 37%
    05:00 +22°C° 0 mm 1 mps 734 mmHg 39%
    06:00 +23°C° 0 mm 1 mps 734 mmHg 37%
    07:00 +24°C° 0 mm 1 mps 735 mmHg 35%
    08:00 +25°C° 0 mm 2 mps 735 mmHg 33%
    09:00 +27°C° 0 mm 2 mps 735 mmHg 29%
    10:00 +28°C° 0 mm 2 mps 735 mmHg 26%
    11:00 +30°C° 0 mm 2 mps 736 mmHg 22%
    12:00 +31°C° 0 mm 2 mps 735 mmHg 21%
    13:00 +32°C° 0 mm 2 mps 735 mmHg 20%
    14:00 +34°C° 0 mm 2 mps 734 mmHg 20%
    15:00 +31°C° 0 mm 1 mps 734 mmHg 24%
    16:00 +30°C° 0 mm 1 mps 734 mmHg 28%
    17:00 +26°C° 0 mm 0 mps 734 mmHg 32%
    18:00 +27°C° 0 mm 1 mps 734 mmHg 32%
    19:00 +27°C° 0 mm 1 mps 735 mmHg 31%
    20:00 +26°C° 0 mm 1 mps 735 mmHg 31%
    21:00 +26°C° 0 mm 1 mps 735 mmHg 32%
    22:00 +25°C° 0 mm 2 mps 735 mmHg 33%
    23:00 +25°C° 0 mm 2 mps 735 mmHg 34%

    Tomorrow, 20 November, Tuesday

    Time Temperature Precipitation Wind Pressure Humidity
    00:00 +24°C° 0 mm 1 mps 735 mmHg 36%
    01:00 +23°C° 0 mm 1 mps 735 mmHg 38%
    02:00 +22°C° 0 mm 1 mps 735 mmHg 40%
    03:00 +22°C° 0 mm 1 mps 735 mmHg 42%
    04:00 +21°C° 0 mm 1 mps 735 mmHg 44%
    05:00 +19°C° 0 mm 0 mps 735 mmHg 45%
    06:00 +22°C° 0 mm 1 mps 735 mmHg 42%
    07:00 +24°C° 0 mm 1 mps 736 mmHg 38%
    08:00 +25°C° 0 mm 1 mps 737 mmHg 34%
    09:00 +27°C° 0 mm 1 mps 737 mmHg 31%
    10:00 +27°C° 0 mm 0 mps 737 mmHg 28%
    11:00 +28°C° 0 mm 0 mps 737 mmHg 25%
    12:00 +31°C° 0 mm 1 mps 736 mmHg 23%
    13:00 +32°C° 0 mm 1 mps 735 mmHg 21%
    14:00 +32°C° 0 mm 1 mps 735 mmHg 19%
    15:00 +31°C° 0 mm 1 mps 735 mmHg 22%
    16:00 +29°C° 0 mm 1 mps 734 mmHg 25%
    17:00 +28°C° 0 mm 1 mps 734 mmHg 28%
    18:00 +27°C° 0 mm 1 mps 735 mmHg 28%
    19:00 +26°C° 0 mm 1 mps 735 mmHg 29%
    20:00 +25°C° 0 mm 2 mps 736 mmHg 29%
    21:00 +25°C° 0 mm 2 mps 736 mmHg 29%
    22:00 +24°C° 0 mm 2 mps 736 mmHg 29%
    23:00 +24°C° 0 mm 3 mps 736 mmHg 29%

    Day after tomorrow, 21 November, Wednesday

    Time Temperature Precipitation Wind Pressure Humidity
    00:00 +23°C° 0 mm 2 mps 736 mmHg 30%
    01:00 +23°C° 0 mm 2 mps 736 mmHg 30%
    02:00 +21°C° 0 mm 2 mps 735 mmHg 30%
    03:00 +21°C° 0 mm 2 mps 735 mmHg 29%
    04:00 +21°C° 0 mm 2 mps 735 mmHg 29%
    05:00 +20°C° 0 mm 2 mps 735 mmHg 28%
    06:00 +21°C° 0 mm 2 mps 736 mmHg 27%
    07:00 +23°C° 0 mm 2 mps 737 mmHg 26%
    08:00 +24°C° 0 mm 2 mps 737 mmHg 25%
    09:00 +26°C° 0 mm 2 mps 737 mmHg 22%
    10:00 +28°C° 0 mm 1 mps 737 mmHg 19%
    11:00 +29°C° 0 mm 1 mps 737 mmHg 16%
    12:00 +30°C° 0 mm 1 mps 736 mmHg 16%
    13:00 +30°C° 0 mm 1 mps 736 mmHg 15%
    14:00 +31°C° 0 mm 1 mps 735 mmHg 14%
    15:00 +29°C° 0 mm 1 mps 735 mmHg 17%
    16:00 +28°C° 0 mm 1 mps 735 mmHg 20%
    17:00 +26°C° 0 mm 1 mps 734 mmHg 23%
    18:00 +25°C° 0 mm 1 mps 735 mmHg 23%
    19:00 +25°C° 0 mm 1 mps 736 mmHg 22%
    20:00 +24°C° 0 mm 1 mps 736 mmHg 22%
    21:00 +23°C° 0 mm 1 mps 736 mmHg 23%
    22:00 +23°C° 0 mm 1 mps 736 mmHg 23%
    23:00 +22°C° 0 mm 1 mps 736 mmHg 24%

    22 November, Thursday

    Time Temperature Precipitation Wind Pressure Humidity
    00:00 +21°C° 0 mm 2 mps 736 mmHg 23%
    01:00 +21°C° 0 mm 2 mps 736 mmHg 23%
    02:00 +20°C° 0 mm 2 mps 735 mmHg 22%
    03:00 +20°C° 0 mm 2 mps 735 mmHg 23%
    04:00 +20°C° 0 mm 2 mps 735 mmHg 23%
    05:00 +19°C° 0 mm 2 mps 735 mmHg 24%
    06:00 +20°C° 0 mm 2 mps 736 mmHg 23%
    07:00 +21°C° 0 mm 2 mps 737 mmHg 23%
    08:00 +23°C° 0 mm 1 mps 737 mmHg 23%
    09:00 +25°C° 0 mm 1 mps 737 mmHg 20%
    10:00 +27°C° 0 mm 1 mps 737 mmHg 18%
    11:00 +29°C° 0 mm 1 mps 737 mmHg 16%
    12:00 +29°C° 0 mm 1 mps 737 mmHg 15%
    13:00 +30°C° 0 mm 1 mps 736 mmHg 14%
    14:00 +31°C° 0 mm 1 mps 735 mmHg 13%
    15:00 +29°C° 0 mm 1 mps 735 mmHg 16%
    16:00 +28°C° 0 mm 1 mps 735 mmHg 20%
    17:00 +26°C° 0 mm 1 mps 735 mmHg 23%
    18:00 +25°C° 0 mm 1 mps 736 mmHg 23%
    19:00 +25°C° 0 mm 1 mps 736 mmHg 23%
    20:00 +24°C° 0 mm 1 mps 737 mmHg 23%
    21:00 +23°C° 0 mm 2 mps 737 mmHg 22%
    22:00 +23°C° 0 mm 2 mps 737 mmHg 22%
    23:00 +23°C° 0 mm 2 mps 737 mmHg 22%

    23 November, Friday

    Time Temperature Precipitation Wind Pressure Humidity
    00:00 +21°C° 0 mm 2 mps 737 mmHg 22%
    01:00 +21°C° 0 mm 2 mps 737 mmHg 23%
    02:00 +20°C° 0 mm 2 mps 737 mmHg 24%
    03:00 +20°C° 0 mm 2 mps 737 mmHg 25%
    04:00 +19°C° 0 mm 2 mps 737 mmHg 25%
    05:00 +19°C° 0 mm 2 mps 737 mmHg 26%
    06:00 +20°C° 0 mm 2 mps 738 mmHg 25%
    07:00 +23°C° 0 mm 2 mps 738 mmHg 25%
    08:00 +24°C° 0 mm 1 mps 739 mmHg 24%
    09:00 +26°C° 0 mm 1 mps 739 mmHg 21%
    10:00 +28°C° 0 mm 1 mps 739 mmHg 19%
    11:00 +30°C° 0 mm 1 mps 739 mmHg 16%
    12:00 +30°C° 0 mm 2 mps 738 mmHg 16%
    13:00 +31°C° 0 mm 2 mps 738 mmHg 15%
    14:00 +33°C° 0 mm 3 mps 737 mmHg 15%
    15:00 +30°C° 0 mm 3 mps 737 mmHg 17%
    16:00 +29°C° 0 mm 2 mps 737 mmHg 20%
    17:00 +27°C° 0 mm 2 mps 737 mmHg 23%
    18:00 +26°C° 0 mm 3 mps 737 mmHg 23%
    19:00 +25°C° 0 mm 3 mps 738 mmHg 23%
    20:00 +24°C° 0 mm 3 mps 738 mmHg 23%
    21:00 +24°C° 0 mm 3 mps 738 mmHg 24%
    22:00 +22°C° 0 mm 3 mps 738 mmHg 25%
    23:00 +22°C° 0 mm 3 mps 738 mmHg 26%

    24 November, Saturday

    Time Temperature Precipitation Wind Pressure Humidity
    00:00 +21°C° 0 mm 3 mps 737 mmHg 27%
    01:00 +21°C° 0 mm 3 mps 737 mmHg 28%
    02:00 +20°C° 0 mm 3 mps 737 mmHg 29%
    03:00 +20°C° 0 mm 3 mps 737 mmHg 30%
    04:00 +19°C° 0 mm 3 mps 737 mmHg 32%
    05:00 +19°C° 0 mm 3 mps 737 mmHg 33%
    06:00 +20°C° 0 mm 3 mps 737 mmHg 32%
    07:00 +20°C° 0 mm 3 mps 738 mmHg 32%
    08:00 +21°C° 0 mm 3 mps 738 mmHg 32%
    09:00 +23°C° 0 mm 4 mps 738 mmHg 28%
    10:00 +27°C° 0 mm 4 mps 738 mmHg 25%
    11:00 +29°C° 0 mm 5 mps 738 mmHg 21%
    12:00 +30°C° 0 mm 5 mps 737 mmHg 20%
    13:00 +30°C° 0 mm 5 mps 736 mmHg 19%
    14:00 +32°C° 0 mm 5 mps 735 mmHg 18%
    15:00 +29°C° 0 mm 4 mps 735 mmHg 20%
    16:00 +28°C° 0 mm 4 mps 735 mmHg 22%
    17:00 +27°C° 0 mm 3 mps 735 mmHg 24%
    18:00 +26°C° 0 mm 3 mps 736 mmHg 25%
    19:00 +25°C° 0 mm 2 mps 736 mmHg 25%
    20:00 +24°C° 0 mm 2 mps 736 mmHg 26%
    21:00 +23°C° 0 mm 2 mps 736 mmHg 27%
    22:00 +21°C° 0 mm 2 mps 736 mmHg 28%
    23:00 +21°C° 0 mm 2 mps 736 mmHg 29%
    Show more